GOL7634 SBBR-KMCO

Flight info

Callsign GOL7634
Flight time N/A
Altitude 34000
Route UGUGA UM409 UDOMA DCT PAMEB DCT LOBEX DCT VUMPI UL795 GELOG UL210 BORDO Y259 OCTAL MUNGI1
Aircraft B38M/M-SDE1FGHILORVWXY/HB1

Departure

Time N/A
Airport Presidente Juscelino Kubitschek International Airport (SBBR)

Arrival

Time 2026-05-04 22:00
Airport Orlando International Airport (KMCO)
Time Latitude Longitude Altitude Speed Heading
2026-05-04 21:40 27.09538 -80.63562 27483 ft 350 kts 330°
2026-05-04 21:40 27.11738 -80.64504 27090 ft 347 kts 330°
2026-05-04 21:40 27.13994 -80.65471 26686 ft 344 kts 330°
2026-05-04 21:40 27.16221 -80.66426 26294 ft 341 kts 330°
2026-05-04 21:41 27.18435 -80.67376 25911 ft 341 kts 330°
2026-05-04 21:41 27.20661 -80.68331 25513 ft 343 kts 331°
2026-05-04 21:41 27.22883 -80.69286 25116 ft 342 kts 331°
2026-05-04 21:41 27.25109 -80.70242 24721 ft 342 kts 331°
2026-05-04 21:42 27.27332 -80.71197 24327 ft 342 kts 331°
2026-05-04 21:42 27.29554 -80.72152 23935 ft 342 kts 331°
2026-05-04 21:42 27.31777 -80.73108 23543 ft 342 kts 332°
2026-05-04 21:42 27.33971 -80.74034 23575 ft 337 kts 332°
2026-05-04 21:43 27.36175 -80.74964 23544 ft 338 kts 332°
2026-05-04 21:43 27.38376 -80.75894 23545 ft 338 kts 332°
2026-05-04 21:43 27.40576 -80.76826 23544 ft 338 kts 332°
2026-05-04 21:43 27.42771 -80.77757 23545 ft 338 kts 332°
2026-05-04 21:44 27.44886 -80.78763 23144 ft 334 kts 328°
2026-05-04 21:44 27.47033 -80.79855 22346 ft 343 kts 329°
2026-05-04 21:44 27.49244 -80.80954 21565 ft 349 kts 330°
2026-05-04 21:44 27.51461 -80.82041 20832 ft 347 kts 330°
2026-05-04 21:45 27.53672 -80.83118 20122 ft 344 kts 330°
2026-05-04 21:45 27.55855 -80.84178 19437 ft 340 kts 330°
2026-05-04 21:45 27.57870 -80.85485 18775 ft 329 kts 320°
2026-05-04 21:45 27.59778 -80.86898 18096 ft 327 kts 322°
2026-05-04 21:46 27.61679 -80.88264 17377 ft 323 kts 323°
2026-05-04 21:46 27.63583 -80.89617 16672 ft 320 kts 323°
2026-05-04 21:46 27.65461 -80.90941 15995 ft 317 kts 324°
2026-05-04 21:46 27.67324 -80.92248 15344 ft 314 kts 325°
2026-05-04 21:47 27.69162 -80.93538 14834 ft 307 kts 325°
2026-05-04 21:47 27.70948 -80.94790 14414 ft 298 kts 325°
2026-05-04 21:47 27.72676 -80.96001 14019 ft 288 kts 325°
2026-05-04 21:47 27.74354 -80.97179 13623 ft 282 kts 325°
2026-05-04 21:48 27.76023 -80.98351 13214 ft 284 kts 326°
2026-05-04 21:48 27.77718 -80.99541 12822 ft 289 kts 325°
2026-05-04 21:48 27.79404 -81.00725 12451 ft 290 kts 325°
2026-05-04 21:48 27.81134 -81.01940 12088 ft 288 kts 325°
2026-05-04 21:49 27.82822 -81.03125 11752 ft 285 kts 325°
2026-05-04 21:49 27.84500 -81.04305 11401 ft 282 kts 325°
2026-05-04 21:49 27.86161 -81.05473 11052 ft 280 kts 325°
2026-05-04 21:49 27.87789 -81.06618 10698 ft 279 kts 324°
2026-05-04 21:50 27.89432 -81.07774 10345 ft 278 kts 324°
2026-05-04 21:50 27.91043 -81.08908 10034 ft 274 kts 324°
2026-05-04 21:50 27.92787 -81.09911 9664 ft 276 kts 335°
2026-05-04 21:50 27.94576 -81.10705 9279 ft 275 kts 335°
2026-05-04 21:51 27.96348 -81.11499 8930 ft 273 kts 335°
2026-05-04 21:51 27.98111 -81.12296 8576 ft 271 kts 335°
2026-05-04 21:51 27.99854 -81.13088 8235 ft 270 kts 334°
2026-05-04 21:51 28.01596 -81.13881 7888 ft 268 kts 335°
2026-05-04 21:52 28.03315 -81.14663 7549 ft 266 kts 335°
2026-05-04 21:52 28.05014 -81.15437 7224 ft 266 kts 335°
2026-05-04 21:52 28.06761 -81.16235 6880 ft 269 kts 334°
2026-05-04 21:52 28.08424 -81.17152 6536 ft 269 kts 330°
2026-05-04 21:53 28.10070 -81.18097 6373 ft 261 kts 330°
2026-05-04 21:53 28.11663 -81.19001 6248 ft 251 kts 331°
2026-05-04 21:53 28.13200 -81.19870 6104 ft 242 kts 331°
2026-05-04 21:53 28.14567 -81.20917 5838 ft 236 kts 315°
2026-05-04 21:54 28.15769 -81.22185 5474 ft 238 kts 315°
2026-05-04 21:54 28.16992 -81.23466 5103 ft 240 kts 316°
2026-05-04 21:54 28.18237 -81.24766 4590 ft 246 kts 317°
2026-05-04 21:54 28.19344 -81.25921 4081 ft 253 kts 319°
2026-05-04 21:55 28.20640 -81.27251 3961 ft 239 kts 323°
2026-05-04 21:55 28.22051 -81.27953 3891 ft 218 kts 356°
2026-05-04 21:55 28.23541 -81.28012 3552 ft 216 kts
2026-05-04 21:55 28.25060 -81.28040 2996 ft 218 kts
2026-05-04 21:56 28.26551 -81.28064 2541 ft 209 kts
2026-05-04 21:56 28.27966 -81.28084 2171 ft 197 kts
2026-05-04 21:56 28.29287 -81.28102 1908 ft 183 kts
2026-05-04 21:56 28.30517 -81.28119 1704 ft 173 kts
2026-05-04 21:57 28.31718 -81.28138 1620 ft 171 kts
2026-05-04 21:57 28.32890 -81.28150 1599 ft 168 kts
2026-05-04 21:57 28.34056 -81.28161 1567 ft 168 kts
2026-05-04 21:57 28.35220 -81.28172 1388 ft 166 kts
2026-05-04 21:58 28.36375 -81.28185 1216 ft 161 kts
2026-05-04 21:58 28.37442 -81.28195 1044 ft 150 kts
2026-05-04 21:58 28.38369 -81.28199 848 ft 145 kts
2026-05-04 21:58 28.39349 -81.28209 616 ft 144 kts
2026-05-04 21:59 28.40269 -81.28214 402 ft 142 kts
2026-05-04 21:59 28.41175 -81.28228 240 ft 141 kts
2026-05-04 21:59 28.42145 -81.28240 102 ft 134 kts
2026-05-04 21:59 28.42950 -81.28238 101 ft 87 kts
2026-05-04 22:00 28.43409 -81.28246 99 ft 61 kts
2026-05-04 22:00 28.43762 -81.28258 101 ft 33 kts 343°
2026-05-04 22:00 28.43874 -81.28439 98 ft 31 kts 268°
2026-05-04 22:00 28.43873 -81.28674 105 ft 29 kts 270°
2026-05-04 22:01 28.43872 -81.28822 111 ft 14 kts 270°
2026-05-04 22:01 28.43872 -81.28948 110 ft 18 kts 270°
2026-05-04 22:01 28.43870 -81.29105 108 ft 22 kts 268°
2026-05-04 22:01 28.43841 -81.29261 99 ft 17 kts 197°
2026-05-04 22:02 28.43715 -81.29263 102 ft 20 kts 179°
2026-05-04 22:02 28.43569 -81.29275 101 ft 21 kts 218°
2026-05-04 22:02 28.43552 -81.29444 100 ft 24 kts 270°
2026-05-04 22:02 28.43550 -81.29638 98 ft 26 kts 269°
2026-05-04 22:03 28.43524 -81.29801 97 ft 17 kts 208°
2026-05-04 22:03 28.43398 -81.29803 98 ft 20 kts 179°
2026-05-04 22:03 28.43260 -81.29802 97 ft 19 kts 179°
2026-05-04 22:03 28.43130 -81.29802 98 ft 18 kts 180°
2026-05-04 22:04 28.43011 -81.29800 97 ft 16 kts 180°
2026-05-04 22:04 28.42903 -81.29800 98 ft 15 kts 179°
2026-05-04 22:04 28.42800 -81.29799 98 ft 15 kts 179°
2026-05-04 22:04 28.42692 -81.29797 98 ft 16 kts 179°
2026-05-04 22:05 28.42569 -81.29796 97 ft 19 kts 179°
2026-05-04 22:05 28.42421 -81.29794 97 ft 23 kts 179°
2026-05-04 22:05 28.42288 -81.29820 97 ft 17 kts 241°
2026-05-04 22:05 28.42279 -81.29948 97 ft 16 kts 269°
2026-05-04 22:06 28.42278 -81.30067 97 ft 15 kts 269°
2026-05-04 22:06 28.42277 -81.30182 97 ft 14 kts 269°
2026-05-04 22:06 28.42276 -81.30293 97 ft 14 kts 270°
2026-05-04 22:06 28.42272 -81.30400 97 ft 13 kts 266°
2026-05-04 22:07 28.42265 -81.30508 97 ft 14 kts 264°
2026-05-04 22:07 28.42257 -81.30627 101 ft 17 kts 265°
2026-05-04 22:07 28.42247 -81.30782 97 ft 23 kts 266°
2026-05-04 22:07 28.42233 -81.30976 99 ft 25 kts 269°
2026-05-04 22:08 28.42257 -81.31168 98 ft 24 kts 281°
2026-05-04 22:08 28.42269 -81.31351 97 ft 24 kts 270°
2026-05-04 22:08 28.42267 -81.31551 99 ft 27 kts 270°
2026-05-04 22:08 28.42264 -81.31755 101 ft 25 kts 269°
2026-05-04 22:09 28.42196 -81.31854 104 ft 16 kts 195°
2026-05-04 22:09 28.42083 -81.31880 102 ft 18 kts 176°
2026-05-04 22:09 28.41948 -81.31877 101 ft 20 kts 179°
2026-05-04 22:09 28.41804 -81.31876 101 ft 22 kts 179°
2026-05-04 22:10 28.41650 -81.31879 100 ft 22 kts 179°
2026-05-04 22:10 28.41505 -81.31908 100 ft 20 kts 191°
2026-05-04 22:10 28.41375 -81.31910 102 ft 16 kts 180°
2026-05-04 22:10 28.41331 -81.31875 101 ft 7 kts 99°
2026-05-04 22:11 28.41328 -81.31810 100 ft 10 kts 90°
2026-05-04 22:11 28.41321 -81.31703 99 ft 16 kts 107°
2026-05-04 22:11 28.41325 -81.31589 98 ft 10 kts 61°
2026-05-04 22:11 28.41367 -81.31536 97 ft 8 kts 67°
2026-05-04 22:12 28.41371 -81.31481 99 ft 5 kts 91°
2026-05-04 22:12 28.41370 -81.31473 99 ft 0 kts 90°
2026-05-04 22:12 28.41370 -81.31471 99 ft 2 kts 91°
2026-05-04 22:12 28.41370 -81.31460 98 ft 0 kts 91°
2026-05-04 22:13 28.41370 -81.31459 98 ft 0 kts 91°